Time,TemperatureF,DewpointF,PressureIn,WindDirection,WindDirectionDegrees,WindSpeedMPH,WindSpeedGustMPH,Humidity,HourlyPrecipIn,Conditions,Clouds,dailyrainin,SoftwareType,DateUTC
2013-02-20 00:29:00,28.7,28.0,29.70,WNW,298,1.0,1.0,97,0.00,,,0.00,Wunderground v.1.15,2013-02-20 08:29:00,
2013-02-20 00:59:00,28.6,27.9,29.70,NW,304,0.0,25.0,97,0.00,,,0.00,Wunderground v.1.15,2013-02-20 08:59:00,
2013-02-20 01:29:00,28.8,28.1,29.68,WNW,297,0.0,25.0,97,0.00,,,0.00,Wunderground v.1.15,2013-02-20 09:29:00,
2013-02-20 01:59:00,28.8,28.3,29.67,WNW,301,0.0,25.0,98,0.00,,,0.00,Wunderground v.1.15,2013-02-20 09:59:00,
2013-02-20 02:29:00,28.8,28.1,29.67,NW,316,0.0,25.0,97,0.00,,,0.00,Wunderground v.1.15,2013-02-20 10:29:00,
2013-02-20 02:59:00,28.4,27.7,29.67,NW,308,0.0,25.0,97,0.00,,,0.00,Wunderground v.1.15,2013-02-20 10:59:00,
2013-02-20 03:29:00,27.8,27.1,29.66,NW,315,0.0,25.0,97,0.00,,,0.00,Wunderground v.1.15,2013-02-20 11:29:00,
2013-02-20 03:59:00,27.1,26.4,29.67,NW,309,0.0,25.0,97,0.00,,,0.00,Wunderground v.1.15,2013-02-20 11:59:00,
2013-02-20 04:29:00,26.8,26.1,29.67,NW,308,0.0,25.0,97,0.00,,,0.00,Wunderground v.1.15,2013-02-20 12:29:00,
2013-02-20 04:59:00,26.3,25.6,29.68,NW,317,0.0,25.0,97,0.00,,,0.00,Wunderground v.1.15,2013-02-20 12:59:00,
2013-02-20 05:29:00,26.0,25.3,29.69,NW,312,0.0,25.0,97,0.00,,,0.00,Wunderground v.1.15,2013-02-20 13:29:00,
2013-02-20 05:59:00,25.5,24.8,29.70,WNW,298,0.0,25.0,97,0.00,,,0.00,Wunderground v.1.15,2013-02-20 13:59:00,
2013-02-20 06:29:00,25.5,24.8,29.71,WNW,295,0.0,25.0,97,0.00,,,0.00,Wunderground v.1.15,2013-02-20 14:29:00,
2013-02-20 06:59:00,25.5,24.8,29.73,WNW,293,0.0,25.0,97,0.00,,,0.00,Wunderground v.1.15,2013-02-20 14:59:00,
2013-02-20 07:29:00,25.4,24.4,29.75,NW,309,0.0,25.0,96,0.00,,,0.00,Wunderground v.1.15,2013-02-20 15:29:00,
2013-02-20 07:59:00,25.6,24.6,29.76,WNW,295,0.0,25.0,96,0.00,,,0.00,Wunderground v.1.15,2013-02-20 15:59:00,
2013-02-20 08:29:00,26.2,25.2,29.77,WNW,295,0.0,25.0,96,0.00,,,0.00,Wunderground v.1.15,2013-02-20 16:29:00,
2013-02-20 08:59:00,26.9,25.9,29.78,WNW,290,0.0,25.0,96,0.00,,,0.00,Wunderground v.1.15,2013-02-20 16:59:00,
2013-02-20 09:29:00,27.4,26.4,29.80,WNW,295,0.0,25.0,96,0.00,,,0.00,Wunderground v.1.15,2013-02-20 17:29:00,
2013-02-20 09:59:00,28.4,27.2,29.80,WNW,285,0.0,25.0,95,0.00,,,0.00,Wunderground v.1.15,2013-02-20 17:59:00,
2013-02-20 10:29:00,28.6,27.6,29.82,WNW,286,0.0,25.0,96,0.00,,,0.00,Wunderground v.1.15,2013-02-20 18:29:00,
2013-02-20 10:41:00,29.0,28.0,29.82,N/A,-737280,0.0,-999.0,96,0.00,,,0.02,Wunderground v.1.15,2013-02-20 18:41:00,
2013-02-20 10:46:00,29.9,28.9,29.82,N/A,-737280,0.0,-999.0,96,0.00,,,0.02,Wunderground v.1.15,2013-02-20 18:46:00,
2013-02-20 10:51:00,29.9,28.9,29.82,N/A,-737280,0.0,-999.0,96,0.00,,,0.02,Wunderground v.1.15,2013-02-20 18:51:00,
2013-02-20 10:56:00,29.8,28.8,29.83,N/A,-737280,0.0,-999.0,96,0.00,,,0.02,Wunderground v.1.15,2013-02-20 18:56:00,
2013-02-20 10:59:00,29.9,28.9,29.83,WNW,295,0.0,25.0,96,0.00,,,0.00,Wunderground v.1.15,2013-02-20 18:59:00,
2013-02-20 11:01:00,29.8,28.8,29.83,N/A,-737280,0.0,-999.0,96,0.00,,,0.02,Wunderground v.1.15,2013-02-20 19:01:00,
2013-02-20 11:06:00,30.2,29.2,29.83,N/A,-737280,0.0,-999.0,96,0.00,,,0.02,Wunderground v.1.15,2013-02-20 19:06:00,
2013-02-20 11:11:00,30.2,29.2,29.83,N/A,-737280,0.0,-999.0,96,0.00,,,0.02,Wunderground v.1.15,2013-02-20 19:11:00,
2013-02-20 11:16:00,29.9,28.9,29.85,N/A,-737280,0.0,-999.0,96,0.00,,,0.02,Wunderground v.1.15,2013-02-20 19:16:00,
2013-02-20 11:21:00,29.9,28.9,29.85,N/A,-737280,0.0,-999.0,96,0.00,,,0.02,Wunderground v.1.15,2013-02-20 19:21:00,
2013-02-20 11:26:00,29.5,28.2,29.85,N/A,-737280,0.0,-999.0,95,0.00,,,0.02,Wunderground v.1.15,2013-02-20 19:26:00,
2013-02-20 11:29:00,29.5,28.5,29.85,NW,313,0.0,25.0,96,0.00,,,0.00,Wunderground v.1.15,2013-02-20 19:29:00,
2013-02-20 11:31:00,29.5,28.2,29.85,N/A,-737280,0.0,-999.0,95,0.00,,,0.02,Wunderground v.1.15,2013-02-20 19:31:00,
2013-02-20 11:36:00,30.0,29.0,29.86,N/A,-737280,0.0,-999.0,96,0.00,,,0.02,Wunderground v.1.15,2013-02-20 19:36:00,
2013-02-20 11:41:00,30.0,29.0,29.86,N/A,-737280,0.0,-999.0,96,0.00,,,0.02,Wunderground v.1.15,2013-02-20 19:41:00,
2013-02-20 11:46:00,30.2,29.2,29.86,N/A,-737280,0.0,-999.0,96,0.00,,,0.02,Wunderground v.1.15,2013-02-20 19:46:00,
2013-02-20 11:51:00,30.2,29.2,29.86,N/A,-737280,0.0,-999.0,96,0.00,,,0.02,Wunderground v.1.15,2013-02-20 19:51:00,
2013-02-20 11:56:00,30.2,28.9,29.85,N/A,-737280,0.0,-999.0,95,0.00,,,0.02,Wunderground v.1.15,2013-02-20 19:56:00,
2013-02-20 11:59:00,30.2,28.9,29.85,WNW,295,0.0,25.0,95,0.00,,,0.00,Wunderground v.1.15,2013-02-20 19:59:00,
2013-02-20 12:01:00,30.2,28.9,29.85,N/A,-737280,0.0,-999.0,95,0.00,,,0.02,Wunderground v.1.15,2013-02-20 20:01:00,
2013-02-20 12:06:00,30.6,29.6,29.85,N/A,-737280,0.0,-999.0,96,0.00,,,0.02,Wunderground v.1.15,2013-02-20 20:06:00,
2013-02-20 12:11:00,30.6,29.6,29.85,N/A,-737280,0.0,-999.0,96,0.00,,,0.02,Wunderground v.1.15,2013-02-20 20:11:00,
2013-02-20 12:16:00,31.4,30.4,29.86,N/A,-737280,0.0,-999.0,96,0.00,,,0.02,Wunderground v.1.15,2013-02-20 20:16:00,
2013-02-20 12:21:00,31.4,30.4,29.86,N/A,-737280,0.0,-999.0,96,0.00,,,0.02,Wunderground v.1.15,2013-02-20 20:21:00,
2013-02-20 12:26:00,31.2,29.9,29.86,N/A,-737280,0.0,-999.0,95,0.00,,,0.02,Wunderground v.1.15,2013-02-20 20:26:00,
2013-02-20 12:30:00,31.2,29.9,29.87,NW,309,0.0,25.0,95,0.00,,,0.00,Wunderground v.1.15,2013-02-20 20:30:00,
2013-02-20 12:31:00,31.2,29.9,29.86,N/A,-737280,0.0,-999.0,95,0.00,,,0.02,Wunderground v.1.15,2013-02-20 20:31:00,
2013-02-20 12:36:00,30.9,29.6,29.87,N/A,-737280,0.0,-999.0,95,0.00,,,0.02,Wunderground v.1.15,2013-02-20 20:36:00,
2013-02-20 12:41:00,30.9,29.6,29.87,N/A,-737280,0.0,-999.0,95,0.00,,,0.02,Wunderground v.1.15,2013-02-20 20:41:00,
2013-02-20 12:46:00,30.8,29.8,29.87,N/A,-737280,0.0,-999.0,96,0.00,,,0.02,Wunderground v.1.15,2013-02-20 20:46:00,
2013-02-20 12:51:00,30.8,29.8,29.87,N/A,-737280,0.0,-999.0,96,0.00,,,0.02,Wunderground v.1.15,2013-02-20 20:51:00,
2013-02-20 12:56:00,31.0,30.0,29.88,N/A,-737280,0.0,-999.0,96,0.00,,,0.02,Wunderground v.1.15,2013-02-20 20:56:00,
2013-02-20 13:00:00,31.0,30.0,29.88,WNW,298,0.0,25.0,96,0.00,,,0.00,Wunderground v.1.15,2013-02-20 21:00:00,
2013-02-20 13:01:00,31.0,30.0,29.88,N/A,-737280,0.0,-999.0,96,0.00,,,0.02,Wunderground v.1.15,2013-02-20 21:01:00,
2013-02-20 13:06:00,31.1,30.1,29.88,N/A,-737280,0.0,-999.0,96,0.00,,,0.02,Wunderground v.1.15,2013-02-20 21:06:00,
2013-02-20 13:11:00,31.1,30.1,29.88,N/A,-737280,0.0,-999.0,96,0.00,,,0.02,Wunderground v.1.15,2013-02-20 21:11:00,
2013-02-20 13:16:00,31.2,30.2,29.88,N/A,-737280,0.0,-999.0,96,0.00,,,0.02,Wunderground v.1.15,2013-02-20 21:16:00,
2013-02-20 13:21:00,31.2,30.2,29.88,N/A,-737280,0.0,-999.0,96,0.00,,,0.02,Wunderground v.1.15,2013-02-20 21:21:00,
2013-02-20 13:26:00,31.2,30.2,29.89,N/A,-737280,0.0,-999.0,96,0.00,,,0.02,Wunderground v.1.15,2013-02-20 21:26:00,
2013-02-20 13:30:00,31.0,30.0,29.89,NW,304,0.0,25.0,96,0.00,,,0.00,Wunderground v.1.15,2013-02-20 21:30:00,
2013-02-20 13:31:00,31.2,30.2,29.89,N/A,-737280,0.0,-999.0,96,0.00,,,0.02,Wunderground v.1.15,2013-02-20 21:31:00,
2013-02-20 13:36:00,30.7,29.7,29.89,N/A,-737280,0.0,-999.0,96,0.00,,,0.02,Wunderground v.1.15,2013-02-20 21:36:00,
2013-02-20 13:41:00,30.7,29.7,29.89,N/A,-737280,0.0,-999.0,96,0.00,,,0.02,Wunderground v.1.15,2013-02-20 21:41:00,
2013-02-20 13:46:00,30.5,29.5,29.89,N/A,-737280,0.0,-999.0,96,0.00,,,0.02,Wunderground v.1.15,2013-02-20 21:46:00,
2013-02-20 13:51:00,30.5,29.5,29.89,N/A,-737280,0.0,-999.0,96,0.00,,,0.02,Wunderground v.1.15,2013-02-20 21:51:00,
2013-02-20 13:56:00,30.6,29.9,29.89,N/A,-737280,0.0,-999.0,97,0.00,,,0.02,Wunderground v.1.15,2013-02-20 21:56:00,
2013-02-20 14:00:00,30.7,30.0,29.89,WNW,300,0.0,25.0,97,0.00,,,0.00,Wunderground v.1.15,2013-02-20 22:00:00,
2013-02-20 14:01:00,30.6,29.9,29.89,N/A,-737280,0.0,-999.0,97,0.00,,,0.02,Wunderground v.1.15,2013-02-20 22:01:00,
2013-02-20 14:06:00,32.1,31.3,29.89,N/A,-737280,0.0,-999.0,97,0.00,,,0.02,Wunderground v.1.15,2013-02-20 22:06:00,
2013-02-20 14:11:00,32.1,31.3,29.89,N/A,-737280,0.0,-999.0,97,0.00,,,0.02,Wunderground v.1.15,2013-02-20 22:11:00,
2013-02-20 14:16:00,32.6,31.6,29.89,N/A,-737280,0.0,-999.0,96,0.00,,,0.02,Wunderground v.1.15,2013-02-20 22:16:00,
2013-02-20 14:21:00,32.6,31.6,29.89,N/A,-737280,0.0,-999.0,96,0.00,,,0.02,Wunderground v.1.15,2013-02-20 22:21:00,
2013-02-20 14:26:00,32.8,31.8,29.89,N/A,-737280,0.0,-999.0,96,0.00,,,0.02,Wunderground v.1.15,2013-02-20 22:26:00,
2013-02-20 14:30:00,32.8,31.8,29.89,WNW,296,0.0,25.0,96,0.00,,,0.00,Wunderground v.1.15,2013-02-20 22:30:00,
2013-02-20 14:31:00,32.8,31.8,29.89,N/A,-737280,0.0,-999.0,96,0.00,,,0.02,Wunderground v.1.15,2013-02-20 22:31:00,
2013-02-20 14:36:00,32.8,31.8,29.89,N/A,-737280,0.0,-999.0,96,0.00,,,0.02,Wunderground v.1.15,2013-02-20 22:36:00,
2013-02-20 14:41:00,32.8,31.8,29.89,N/A,-737280,0.0,-999.0,96,0.00,,,0.02,Wunderground v.1.15,2013-02-20 22:41:00,
2013-02-20 14:46:00,32.9,31.9,29.89,N/A,-737280,0.0,-999.0,96,0.00,,,0.02,Wunderground v.1.15,2013-02-20 22:46:00,
2013-02-20 14:51:00,32.9,31.9,29.89,N/A,-737280,0.0,-999.0,96,0.00,,,0.02,Wunderground v.1.15,2013-02-20 22:51:00,
2013-02-20 14:56:00,32.8,31.8,29.89,N/A,-737280,0.0,-999.0,96,0.00,,,0.02,Wunderground v.1.15,2013-02-20 22:56:00,
2013-02-20 15:00:00,32.9,31.9,29.89,WNW,295,0.0,25.0,96,0.00,,,0.00,Wunderground v.1.15,2013-02-20 23:00:00,
2013-02-20 15:01:00,32.8,31.8,29.89,N/A,-737280,0.0,-999.0,96,0.00,,,0.02,Wunderground v.1.15,2013-02-20 23:01:00,
2013-02-20 15:06:00,33.4,32.4,29.90,N/A,-737280,0.0,-999.0,96,0.00,,,0.02,Wunderground v.1.15,2013-02-20 23:06:00,
2013-02-20 15:11:00,33.4,32.4,29.90,N/A,-737280,0.0,-999.0,96,0.00,,,0.02,Wunderground v.1.15,2013-02-20 23:11:00,
2013-02-20 15:16:00,33.4,32.4,29.90,N/A,-737280,0.0,-999.0,96,0.00,,,0.02,Wunderground v.1.15,2013-02-20 23:16:00,
2013-02-20 15:21:00,33.4,32.4,29.90,N/A,-737280,0.0,-999.0,96,0.00,,,0.02,Wunderground v.1.15,2013-02-20 23:21:00,
2013-02-20 15:26:00,33.2,32.2,29.91,N/A,-737280,0.0,-999.0,96,0.00,,,0.02,Wunderground v.1.15,2013-02-20 23:26:00,
2013-02-20 15:30:00,33.1,32.1,29.91,WNW,302,0.0,25.0,96,0.00,,,0.00,Wunderground v.1.15,2013-02-20 23:30:00,
2013-02-20 15:31:00,33.2,32.2,29.91,N/A,-737280,0.0,-999.0,96,0.00,,,0.02,Wunderground v.1.15,2013-02-20 23:31:00,
2013-02-20 15:36:00,33.3,32.5,29.91,N/A,-737280,0.0,-999.0,97,0.00,,,0.02,Wunderground v.1.15,2013-02-20 23:36:00,
2013-02-20 15:41:00,33.3,32.5,29.91,N/A,-737280,0.0,-999.0,97,0.00,,,0.02,Wunderground v.1.15,2013-02-20 23:41:00,
2013-02-20 15:46:00,34.3,33.5,29.91,N/A,-737280,0.0,-999.0,97,0.00,,,0.02,Wunderground v.1.15,2013-02-20 23:46:00,
2013-02-20 15:51:00,34.3,33.5,29.91,N/A,-737280,0.0,-999.0,97,0.00,,,0.02,Wunderground v.1.15,2013-02-20 23:51:00,
2013-02-20 15:56:00,34.1,32.8,29.92,N/A,-737280,0.0,-999.0,95,0.00,,,0.02,Wunderground v.1.15,2013-02-20 23:56:00,
2013-02-20 16:00:00,34.0,32.7,29.92,NW,304,0.0,25.0,95,0.00,,,0.00,Wunderground v.1.15,2013-02-21 00:00:00,
2013-02-20 16:01:00,34.1,32.8,29.92,N/A,-737280,0.0,-999.0,95,0.00,,,0.02,Wunderground v.1.15,2013-02-21 00:01:00,
2013-02-20 16:06:00,33.5,32.2,29.92,N/A,-737280,0.0,-999.0,95,0.01,,,0.02,Wunderground v.1.15,2013-02-21 00:06:00,
2013-02-20 16:11:00,33.5,32.2,29.92,N/A,-737280,0.0,-999.0,95,0.01,,,0.02,Wunderground v.1.15,2013-02-21 00:11:00,
2013-02-20 16:16:00,32.5,31.5,29.93,N/A,-737280,0.0,-999.0,96,0.01,,,0.02,Wunderground v.1.15,2013-02-21 00:16:00,
2013-02-20 16:21:00,32.5,31.5,29.93,N/A,-737280,0.0,-999.0,96,0.01,,,0.02,Wunderground v.1.15,2013-02-21 00:21:00,
2013-02-20 16:26:00,32.1,31.1,29.94,N/A,-737280,0.0,-999.0,96,0.01,,,0.02,Wunderground v.1.15,2013-02-21 00:26:00,
2013-02-20 16:30:00,32.1,31.1,29.94,WNW,297,0.0,25.0,96,0.00,,,0.01,Wunderground v.1.15,2013-02-21 00:30:00,
2013-02-20 16:31:00,32.1,31.1,29.94,N/A,-737280,0.0,-999.0,96,0.01,,,0.02,Wunderground v.1.15,2013-02-21 00:31:00,
2013-02-20 16:36:00,32.1,31.1,29.94,N/A,-737280,0.0,-999.0,96,0.01,,,0.02,Wunderground v.1.15,2013-02-21 00:36:00,
2013-02-20 16:41:00,32.1,31.1,29.94,N/A,-737280,0.0,-999.0,96,0.01,,,0.02,Wunderground v.1.15,2013-02-21 00:41:00,
2013-02-20 16:46:00,32.4,31.4,29.94,N/A,-737280,0.0,-999.0,96,0.01,,,0.02,Wunderground v.1.15,2013-02-21 00:46:00,
2013-02-20 16:51:00,32.4,31.4,29.94,N/A,-737280,0.0,-999.0,96,0.01,,,0.02,Wunderground v.1.15,2013-02-21 00:51:00,
2013-02-20 16:56:00,32.3,31.3,29.94,N/A,-737280,0.0,-999.0,96,0.01,,,0.02,Wunderground v.1.15,2013-02-21 00:56:00,
2013-02-20 17:00:00,32.4,31.4,29.94,WNW,287,0.0,25.0,96,0.00,,,0.01,Wunderground v.1.15,2013-02-21 01:00:00,
2013-02-20 17:01:00,32.3,31.3,29.94,N/A,-737280,0.0,-999.0,96,0.01,,,0.02,Wunderground v.1.15,2013-02-21 01:01:00,
2013-02-20 17:06:00,32.3,31.3,29.94,N/A,-737280,0.0,-999.0,96,0.00,,,0.02,Wunderground v.1.15,2013-02-21 01:06:00,
2013-02-20 17:11:00,32.3,31.3,29.94,N/A,-737280,0.0,-999.0,96,0.00,,,0.02,Wunderground v.1.15,2013-02-21 01:11:00,
2013-02-20 17:16:00,32.1,31.1,29.95,N/A,-737280,0.0,-999.0,96,0.00,,,0.02,Wunderground v.1.15,2013-02-21 01:16:00,
2013-02-20 17:21:00,32.1,31.1,29.95,N/A,-737280,0.0,-999.0,96,0.00,,,0.02,Wunderground v.1.15,2013-02-21 01:21:00,
2013-02-20 17:26:00,32.1,31.1,29.95,N/A,-737280,0.0,-999.0,96,0.00,,,0.02,Wunderground v.1.15,2013-02-21 01:26:00,
2013-02-20 17:30:00,32.1,31.1,29.95,WNW,292,0.0,25.0,96,0.00,,,0.01,Wunderground v.1.15,2013-02-21 01:30:00,
2013-02-20 17:31:00,32.1,31.1,29.95,N/A,-737280,0.0,-999.0,96,0.00,,,0.02,Wunderground v.1.15,2013-02-21 01:31:00,
2013-02-20 17:36:00,32.0,31.0,29.96,N/A,-737280,0.0,-999.0,96,0.00,,,0.02,Wunderground v.1.15,2013-02-21 01:36:00,
2013-02-20 17:41:00,32.0,31.0,29.96,N/A,-737280,0.0,-999.0,96,0.00,,,0.02,Wunderground v.1.15,2013-02-21 01:41:00,
2013-02-20 17:46:00,32.0,31.2,29.97,N/A,-737280,0.0,-999.0,97,0.00,,,0.02,Wunderground v.1.15,2013-02-21 01:46:00,
2013-02-20 17:51:00,32.0,31.2,29.97,N/A,-737280,0.0,-999.0,97,0.00,,,0.02,Wunderground v.1.15,2013-02-21 01:51:00,
2013-02-20 17:56:00,32.0,31.2,29.97,N/A,-737280,0.0,-999.0,97,0.00,,,0.02,Wunderground v.1.15,2013-02-21 01:56:00,
2013-02-20 18:00:00,32.0,31.2,29.98,WNW,291,0.0,25.0,97,0.00,,,0.01,Wunderground v.1.15,2013-02-21 02:00:00,
2013-02-20 18:01:00,32.0,31.2,29.97,N/A,-737280,0.0,-999.0,97,0.00,,,0.02,Wunderground v.1.15,2013-02-21 02:01:00,
2013-02-20 18:06:00,32.0,31.2,29.98,N/A,-737280,0.0,-999.0,97,0.00,,,0.02,Wunderground v.1.15,2013-02-21 02:06:00,
2013-02-20 18:11:00,32.0,31.2,29.98,N/A,-737280,0.0,-999.0,97,0.00,,,0.02,Wunderground v.1.15,2013-02-21 02:11:00,
2013-02-20 18:16:00,32.0,31.2,29.99,N/A,-737280,0.0,-999.0,97,0.00,,,0.02,Wunderground v.1.15,2013-02-21 02:16:00,
2013-02-20 18:21:00,32.0,31.2,29.99,N/A,-737280,0.0,-999.0,97,0.00,,,0.02,Wunderground v.1.15,2013-02-21 02:21:00,
2013-02-20 18:26:00,32.0,31.2,29.99,N/A,-737280,0.0,-999.0,97,0.00,,,0.02,Wunderground v.1.15,2013-02-21 02:26:00,
2013-02-20 18:30:00,32.0,31.2,29.99,WNW,295,0.0,25.0,97,0.00,,,0.01,Wunderground v.1.15,2013-02-21 02:30:00,
2013-02-20 18:31:00,32.0,31.2,29.99,N/A,-737280,0.0,-999.0,97,0.00,,,0.02,Wunderground v.1.15,2013-02-21 02:31:00,
2013-02-20 18:36:00,31.9,31.1,30.00,N/A,-737280,0.0,-999.0,97,0.00,,,0.02,Wunderground v.1.15,2013-02-21 02:36:00,
2013-02-20 18:41:00,31.9,31.1,30.00,N/A,-737280,0.0,-999.0,97,0.00,,,0.02,Wunderground v.1.15,2013-02-21 02:41:00,
2013-02-20 18:46:00,31.8,31.0,30.00,N/A,-737280,0.0,-999.0,97,0.00,,,0.02,Wunderground v.1.15,2013-02-21 02:46:00,
2013-02-20 18:51:00,31.8,31.0,30.00,N/A,-737280,0.0,-999.0,97,0.00,,,0.02,Wunderground v.1.15,2013-02-21 02:51:00,
2013-02-20 18:56:00,31.8,31.0,30.01,N/A,-737280,0.0,-999.0,97,0.00,,,0.02,Wunderground v.1.15,2013-02-21 02:56:00,
2013-02-20 19:00:00,31.8,31.0,30.01,WNW,291,0.0,25.0,97,0.00,,,0.01,Wunderground v.1.15,2013-02-21 03:00:00,
2013-02-20 19:01:00,31.8,31.0,30.01,N/A,-737280,0.0,-999.0,97,0.00,,,0.02,Wunderground v.1.15,2013-02-21 03:01:00,
2013-02-20 19:06:00,31.7,30.9,30.01,N/A,-737280,0.0,-999.0,97,0.00,,,0.02,Wunderground v.1.15,2013-02-21 03:06:00,
2013-02-20 19:11:00,31.7,30.9,30.01,N/A,-737280,0.0,-999.0,97,0.00,,,0.02,Wunderground v.1.15,2013-02-21 03:11:00,
2013-02-20 19:16:00,31.7,30.9,30.01,N/A,-737280,0.0,-999.0,97,0.00,,,0.02,Wunderground v.1.15,2013-02-21 03:16:00,
2013-02-20 19:21:00,31.7,30.9,30.01,N/A,-737280,0.0,-999.0,97,0.00,,,0.02,Wunderground v.1.15,2013-02-21 03:21:00,
2013-02-20 19:26:00,31.6,30.8,30.01,N/A,-737280,0.0,-999.0,97,0.00,,,0.02,Wunderground v.1.15,2013-02-21 03:26:00,
2013-02-20 19:30:00,31.7,30.9,30.01,WNW,288,0.0,25.0,97,0.00,,,0.01,Wunderground v.1.15,2013-02-21 03:30:00,
2013-02-20 19:31:00,31.6,30.8,30.01,N/A,-737280,0.0,-999.0,97,0.00,,,0.02,Wunderground v.1.15,2013-02-21 03:31:00,
2013-02-20 19:36:00,31.6,30.8,30.02,N/A,-737280,0.0,-999.0,97,0.00,,,0.02,Wunderground v.1.15,2013-02-21 03:36:00,
2013-02-20 19:41:00,31.6,30.8,30.02,N/A,-737280,0.0,-999.0,97,0.00,,,0.02,Wunderground v.1.15,2013-02-21 03:41:00,
2013-02-20 19:46:00,31.6,30.8,30.02,N/A,-737280,0.0,-999.0,97,0.00,,,0.02,Wunderground v.1.15,2013-02-21 03:46:00,
2013-02-20 19:51:00,31.6,30.8,30.02,N/A,-737280,0.0,-999.0,97,0.00,,,0.02,Wunderground v.1.15,2013-02-21 03:51:00,
2013-02-20 19:56:00,31.6,30.8,30.02,N/A,-737280,0.0,-999.0,97,0.00,,,0.02,Wunderground v.1.15,2013-02-21 03:56:00,
2013-02-20 20:00:00,31.5,30.7,30.02,WNW,294,0.0,25.0,97,0.00,,,0.01,Wunderground v.1.15,2013-02-21 04:00:00,
2013-02-20 20:01:00,31.6,30.8,30.02,N/A,-737280,0.0,-999.0,97,0.00,,,0.02,Wunderground v.1.15,2013-02-21 04:01:00,
2013-02-20 20:06:00,31.4,30.6,30.02,N/A,-737280,0.0,-999.0,97,0.00,,,0.02,Wunderground v.1.15,2013-02-21 04:06:00,
2013-02-20 20:11:00,31.4,30.6,30.02,N/A,-737280,0.0,-999.0,97,0.00,,,0.02,Wunderground v.1.15,2013-02-21 04:11:00,
2013-02-20 20:16:00,31.2,30.4,30.01,N/A,-737280,0.0,-999.0,97,0.00,,,0.02,Wunderground v.1.15,2013-02-21 04:16:00,
2013-02-20 20:21:00,31.2,30.4,30.01,N/A,-737280,0.0,-999.0,97,0.00,,,0.02,Wunderground v.1.15,2013-02-21 04:21:00,
2013-02-20 20:26:00,30.6,29.9,30.01,N/A,-737280,0.0,-999.0,97,0.00,,,0.02,Wunderground v.1.15,2013-02-21 04:26:00,
2013-02-20 20:30:00,30.5,29.8,30.01,WNW,294,0.0,25.0,97,0.00,,,0.01,Wunderground v.1.15,2013-02-21 04:30:00,
2013-02-20 20:31:00,30.6,29.9,30.01,N/A,-737280,0.0,-999.0,97,0.00,,,0.02,Wunderground v.1.15,2013-02-21 04:31:00,
2013-02-20 20:36:00,30.1,29.4,30.02,N/A,-737280,0.0,-999.0,97,0.00,,,0.02,Wunderground v.1.15,2013-02-21 04:36:00,
2013-02-20 20:41:00,30.1,29.4,30.02,N/A,-737280,0.0,-999.0,97,0.00,,,0.02,Wunderground v.1.15,2013-02-21 04:41:00,
2013-02-20 20:46:00,30.2,29.5,30.02,N/A,-737280,0.0,-999.0,97,0.01,,,0.02,Wunderground v.1.15,2013-02-21 04:46:00,
2013-02-20 20:51:00,30.2,29.5,30.02,N/A,-737280,0.0,-999.0,97,0.01,,,0.02,Wunderground v.1.15,2013-02-21 04:51:00,
2013-02-20 20:56:00,29.9,29.2,30.03,N/A,-737280,0.0,-999.0,97,0.01,,,0.02,Wunderground v.1.15,2013-02-21 04:56:00,
2013-02-20 21:00:00,29.8,29.1,30.03,WNW,295,0.0,25.0,97,0.00,,,0.02,Wunderground v.1.15,2013-02-21 05:00:00,
2013-02-20 21:01:00,29.9,29.2,30.03,N/A,-737280,0.0,-999.0,97,0.01,,,0.02,Wunderground v.1.15,2013-02-21 05:01:00,
2013-02-20 21:06:00,29.5,28.8,30.03,N/A,-737280,0.0,-999.0,97,0.01,,,0.02,Wunderground v.1.15,2013-02-21 05:06:00,
2013-02-20 21:11:00,29.5,28.8,30.03,N/A,-737280,0.0,-999.0,97,0.01,,,0.02,Wunderground v.1.15,2013-02-21 05:11:00,
2013-02-20 21:16:00,29.1,28.4,30.04,N/A,-737280,0.0,-999.0,97,0.01,,,0.02,Wunderground v.1.15,2013-02-21 05:16:00,
2013-02-20 21:21:00,29.1,28.4,30.04,N/A,-737280,0.0,-999.0,97,0.01,,,0.02,Wunderground v.1.15,2013-02-21 05:21:00,
2013-02-20 21:26:00,28.7,28.0,30.04,N/A,-737280,0.0,-999.0,97,0.01,,,0.02,Wunderground v.1.15,2013-02-21 05:26:00,
2013-02-20 21:30:00,28.7,28.0,30.04,WNW,294,0.0,25.0,97,0.00,,,0.02,Wunderground v.1.15,2013-02-21 05:30:00,
2013-02-20 21:31:00,28.7,28.0,30.04,N/A,-737280,0.0,-999.0,97,0.01,,,0.02,Wunderground v.1.15,2013-02-21 05:31:00,
2013-02-20 21:36:00,28.6,28.1,30.05,N/A,-737280,0.0,-999.0,98,0.01,,,0.02,Wunderground v.1.15,2013-02-21 05:36:00,
2013-02-20 21:41:00,28.6,28.1,30.05,N/A,-737280,0.0,-999.0,98,0.01,,,0.02,Wunderground v.1.15,2013-02-21 05:41:00,
2013-02-20 21:46:00,28.0,27.3,30.05,N/A,-737280,0.0,-999.0,97,0.00,,,0.02,Wunderground v.1.15,2013-02-21 05:46:00,
2013-02-20 21:51:00,28.0,27.3,30.05,N/A,-737280,0.0,-999.0,97,0.00,,,0.02,Wunderground v.1.15,2013-02-21 05:51:00,
2013-02-20 21:56:00,27.3,26.6,30.05,N/A,-737280,0.0,-999.0,97,0.00,,,0.02,Wunderground v.1.15,2013-02-21 05:56:00,
2013-02-20 22:00:00,27.2,26.5,30.05,WNW,294,0.0,25.0,97,0.00,,,0.02,Wunderground v.1.15,2013-02-21 06:00:00,
2013-02-20 22:01:00,27.3,26.6,30.05,N/A,-737280,0.0,-999.0,97,0.00,,,0.02,Wunderground v.1.15,2013-02-21 06:01:00,
2013-02-20 22:06:00,26.9,26.2,30.06,N/A,-737280,0.0,-999.0,97,0.00,,,0.02,Wunderground v.1.15,2013-02-21 06:06:00,
2013-02-20 22:11:00,26.9,26.2,30.06,N/A,-737280,0.0,-999.0,97,0.00,,,0.02,Wunderground v.1.15,2013-02-21 06:11:00,
2013-02-20 22:16:00,26.7,26.0,30.06,N/A,-737280,0.0,-999.0,97,0.00,,,0.02,Wunderground v.1.15,2013-02-21 06:16:00,
2013-02-20 22:21:00,26.7,26.0,30.06,N/A,-737280,0.0,-999.0,97,0.00,,,0.02,Wunderground v.1.15,2013-02-21 06:21:00,
2013-02-20 22:26:00,26.6,25.9,30.06,N/A,-737280,0.0,-999.0,97,0.00,,,0.02,Wunderground v.1.15,2013-02-21 06:26:00,
2013-02-20 22:30:00,26.5,25.8,30.06,NNW,328,0.0,25.0,97,0.00,,,0.02,Wunderground v.1.15,2013-02-21 06:30:00,
2013-02-20 22:31:00,26.6,25.9,30.06,N/A,-737280,0.0,-999.0,97,0.00,,,0.02,Wunderground v.1.15,2013-02-21 06:31:00,
2013-02-20 22:36:00,26.1,25.4,30.06,N/A,-737280,0.0,-999.0,97,0.00,,,0.02,Wunderground v.1.15,2013-02-21 06:36:00,
2013-02-20 22:41:00,26.1,25.4,30.06,N/A,-737280,0.0,-999.0,97,0.00,,,0.02,Wunderground v.1.15,2013-02-21 06:41:00,
2013-02-20 22:46:00,25.6,24.9,30.06,N/A,-737280,0.0,-999.0,97,0.00,,,0.02,Wunderground v.1.15,2013-02-21 06:46:00,
2013-02-20 22:51:00,25.6,24.9,30.06,N/A,-737280,0.0,-999.0,97,0.00,,,0.02,Wunderground v.1.15,2013-02-21 06:51:00,
2013-02-20 22:56:00,24.8,24.1,30.06,N/A,-737280,0.0,-999.0,97,0.00,,,0.02,Wunderground v.1.15,2013-02-21 06:56:00,
2013-02-20 23:00:00,24.8,24.1,30.06,ENE,59,0.0,25.0,97,0.00,,,0.02,Wunderground v.1.15,2013-02-21 07:00:00,
2013-02-20 23:01:00,24.8,24.1,30.06,N/A,-737280,0.0,-999.0,97,0.00,,,0.02,Wunderground v.1.15,2013-02-21 07:01:00,
2013-02-20 23:06:00,24.7,24.0,30.06,N/A,-737280,0.0,-999.0,97,0.00,,,0.02,Wunderground v.1.15,2013-02-21 07:06:00,
2013-02-20 23:11:00,24.7,24.0,30.06,N/A,-737280,0.0,-999.0,97,0.00,,,0.02,Wunderground v.1.15,2013-02-21 07:11:00,
2013-02-20 23:16:00,24.2,23.5,30.06,N/A,-737280,0.0,-999.0,97,0.00,,,0.02,Wunderground v.1.15,2013-02-21 07:16:00,
2013-02-20 23:21:00,24.2,23.5,30.06,N/A,-737280,0.0,-999.0,97,0.00,,,0.02,Wunderground v.1.15,2013-02-21 07:21:00,
2013-02-20 23:26:00,23.5,22.5,30.06,N/A,-737280,0.0,-999.0,96,0.00,,,0.02,Wunderground v.1.15,2013-02-21 07:26:00,
2013-02-20 23:30:00,23.4,22.4,30.06,East,79,0.0,25.0,96,0.00,,,0.02,Wunderground v.1.15,2013-02-21 07:30:00,
2013-02-20 23:31:00,23.5,22.5,30.06,N/A,-737280,0.0,-999.0,96,0.00,,,0.02,Wunderground v.1.15,2013-02-21 07:31:00,
2013-02-20 23:36:00,23.2,22.5,30.07,N/A,-737280,0.0,-999.0,97,0.00,,,0.02,Wunderground v.1.15,2013-02-21 07:36:00,
2013-02-20 23:41:00,23.2,22.5,30.07,N/A,-737280,0.0,-999.0,97,0.00,,,0.02,Wunderground v.1.15,2013-02-21 07:41:00,
2013-02-20 23:46:00,23.0,22.0,30.07,N/A,-737280,0.0,-999.0,96,0.00,,,0.02,Wunderground v.1.15,2013-02-21 07:46:00,
2013-02-20 23:51:00,23.0,22.0,30.07,N/A,-737280,0.0,-999.0,96,0.00,,,0.02,Wunderground v.1.15,2013-02-21 07:51:00,
2013-02-20 23:56:00,22.7,21.7,30.07,N/A,-737280,0.0,-999.0,96,0.00,,,0.02,Wunderground v.1.15,2013-02-21 07:56:00,